Regional Weather Roundup
Issued by NWS

Home | Current Version | Previous Version | Graphics & Text | Print | Product List | Glossary On
Versions: 1 2 3 4 5 6 7 8 9 10 11 12 13 14 15 16 17 18 19 20 21 22 23 24 25 26 27 28 29 30 31 32 33 34 35 36 37 38 39 40 41 42 43 44 45 46 47 48 49 50
000
ASUS43 KLOT 261608
RWRIL

ILLINOIS REGIONAL WEATHER ROUNDUP
NATIONAL WEATHER SERVICE CHICAGO/ROMEOVILLE IL
1000 AM CST SUN FEB 26 2017

NOTE: "FAIR" INDICATES FEW OR NO CLOUDS BELOW 12,000 FEET WITH NO
SIGNIFICANT WEATHER AND/OR OBSTRUCTIONS TO VISIBILITY.

* THESE STATIONS ARE NOT UNDER NWS QUALITY CONTROL. THEY ALSO MAY NOT
  REPORT WEATHER SUCH AS PRECIPITATION OR FOG.

ILZ001-002-007-009-015-016-024-261700-
NORTHWEST ILLINOIS

CITY           SKY/WX    TMP DP  RH WIND       PRES   REMARKS
MOLINE         MOSUNNY   41  21  44 SW18G25   29.96S
STERLING*      MOSUNNY   37  21  52 SW15G24   29.95F WCI  28
$$

ILZ003-004-008-010-011-017-018-261700-
NORTH CENTRAL ILLINOIS

CITY           SKY/WX    TMP DP  RH WIND       PRES   REMARKS
ROCKFORD       PTSUNNY   36  20  52 SW18G28   29.95R WCI  26
FREEPORT*      SUNNY     35  23  63 SW20G26   29.92F WCI  23
ROCHELLE*      CLOUDY    36  23  59 SW25G31   29.95S WCI  24
DE KALB*       PTSUNNY   34  22  61 S23G32    29.96S WCI  22
PERU*          SUNNY     38  17  41 SW20G25   29.99F WCI  28
$$

ILZ005-006-012>014-019>023-261700-
NORTHEAST ILLINOIS

CITY           SKY/WX    TMP DP  RH WIND       PRES   REMARKS
CHICAGO-OHARE  PTSUNNY   35  16  45 S22       29.97F WCI  23
CHICAGO-MIDWAY PTSUNNY   34  15  46 S18G26    30.00F WCI  23
AURORA         MOSUNNY   38  19  46 S22G32    29.98F WCI  27
LANSING*       CLOUDY    34  21  59 S21G29    30.04F WCI  23
JOLIET*        CLOUDY    37  20  49 S20G26    30.01F WCI  27
WAUKEGAN       CLOUDY    34  17  50 S24G31    29.92F WCI  21
DUPAGE AIRPORT CLOUDY    35  18  49 S21G31    29.96F WCI  24
KANKAKEE*      MOSUNNY   38  19  46 S22G29    30.06F WCI  27
WHEELING       CLOUDY    34  16  47 S18G25    29.97F WCI  23
MORRIS*        PTSUNNY   37  18  47 S25G33    30.00S WCI  25
ROMEOVILLE*    CLOUDY    34  23  62 S20G25    30.00F WCI  23
NORTHERLY ISL    N/A     34  14  44 S15         N/A  WCI  24
$$

LMZ740>746-261700-
SOUTHERN LAKE MICHIGAN

STATION/POSITION SKY/WX   TEMP    WIND        PRES    VSBY  WAVE
                          AIR SEA DIR/SP/G                  HT/PER
                          (F)     (DEG/KT/KT) (MB)    (MI)  (FT/S)
HARRISON CRIB              34     200/ 27/ 35   N/A
BURNHAM HARBOR             35     200/ 15/ 21   N/A
CALUMET HARBOR             34     180/ 13/ 18 1015.9F
BURNS HARBOR               31     190/ 17     1017.9S
MICHIGAN CITY              32     160/ 17/ 20   N/A
$$

ILZ025>027-034>036-040-047-049-050-058-095>099-261700-
WEST-CENTRAL ILLINOIS

CITY           SKY/WX    TMP DP  RH WIND       PRES   REMARKS
QUINCY         MOSUNNY   40  18  41 S15       30.04S
GALESBURG*     MOSUNNY   38  22  51 SW21G28   29.99S WCI  28
MACOMB*        MOSUNNY   38  18  44 SW20G26   30.03F WCI  28
JACKSONVILLE*  MOSUNNY   38  16  40 S18G25    30.09R WCI  29
PITTSFIELD*    CLOUDY    39  19  43 S14G20    30.08S WCI  31
$$

ILZ028>032-037-038-041>044-048-051>054-059>061-261700-
CENTRAL ILLINOIS

CITY           SKY/WX    TMP DP  RH WIND       PRES   REMARKS
PONTIAC        MOSUNNY   38  19  45 S21G30    30.05S WCI  28
BLOOMINGTON    PTSUNNY   37  17  44 S23G29    30.06S WCI  26
DECATUR        MOSUNNY   38  15  39 SW18      30.11S WCI  28
PEORIA         CLOUDY    37  17  44 S15       30.04S WCI  28
LACON*         PTSUNNY   37  19  46 SW17G23   30.01S WCI  28
LINCOLN*       PTSUNNY   39  20  47 S14G22    30.09S WCI  30
SPRINGFIELD    MOSUNNY   40  17  39 S17       30.10S
TAYLORVILLE    CLOUDY    38  18  44 S22       30.12S WCI  28
$$

ILZ033-039-045-046-055>057-062-063-261700-
EAST-CENTRAL ILLINOIS

CITY           SKY/WX    TMP DP  RH WIND       PRES   REMARKS
CHAMPAIGN      MOSUNNY   40  16  37 S24       30.10F
RANTOUL*       MOSUNNY   39  19  44 S20G25    30.10F WCI  29
MATTOON        SUNNY     38  17  42 S17G23    30.12F WCI  28
PARIS*         MOSUNNY   37  18  46 S24       30.15F WCI  26
$$

ILZ079-100>102-261700-
SOUTHWEST ILLINOIS

CITY           SKY/WX    TMP DP  RH WIND       PRES   REMARKS
ALTON          CLOUDY    37  16  41 S14G21    30.14R WCI  29
BELLEVILLE     PTSUNNY   37  18  44 SE8       30.15R WCI  31
CAHOKIA*       CLOUDY    40  13  33 S9G18     30.15R
SPARTA*        CLOUDY    36  18  47 S10       30.17S WCI  29
$$

ILZ064>066-069>071-074>076-080>082-084>086-088>090-092>094-261700-
SOUTH-CENTRAL ILLINOIS

CITY           SKY/WX    TMP DP  RH WIND       PRES   REMARKS
CARBONDALE     CLOUDY    40  19  43 S14       30.19S
CAIRO*         SUNNY     41  20  42 S9        30.20S
EFFINGHAM*     SUNNY     38  20  48 SE14      30.18R WCI  30
MARION         CLOUDY    41  16  36 SE13      30.19
MT. VERNON     MOSUNNY   40  17  39 S12       30.18S
CENTRALIA*     MOSUNNY   38  19  45 S14G20    30.16S WCI  30
SALEM*         SUNNY     40  16  38 S16       30.16S
METROPOLIS*    SUNNY     42  22  44 CALM      30.22S
$$

ILZ067-068-072-073-078-083-087-091-261700-
SOUTHEAST ILLINOIS

CITY           SKY/WX    TMP DP  RH WIND       PRES   REMARKS
LAWRENCEVILLE  SUNNY     38  18  44 S15       30.20F WCI  29
FLORA*         SUNNY     39  19  44 S17       30.19S WCI  30
FAIRFIELD*     SUNNY     38  20  47 S9        30.18F WCI  32
HARRISBURG*    SUNNY     40  21  47 S10       30.20F
ROBINSON*      SUNNY     37  18  47 S14       30.20S WCI  28
CARMI*         SUNNY     38  20  48 S14       30.20F WCI  30
$$

ABBREVIATIONS USED IN REMARKS
   TC - TEMPERATURE IN CELSIUS
  WCI - WIND CHILL INDEX
   HX - HEAT INDEX
  VSB - VISIBILITY
$$




USA.gov is the U.S. government's official web portal to all federal, state and local government web resources and services.